Hourly Data Report for January 24, 2012

HALIFAX STANFIELD INT'L A
NOVA SCOTIA

44°52'48.060" N
63°30'00.050" W
145.40 m
8202250
71395
YHZ

Download Data

Hourly Data (January 2012)
Hourly Data Report for January 24, 2012
TIME
LST
Temp Definition
°C
Dew Point Definition
°C
Rel Hum Definition
%
Precip. Amount Definition
mm

Wind Dir Definition
10's deg

Wind Spd Definition
km/h
Visibility Definition
km
Stn Press Definition
kPa
Hmdx Definition


Wind Chill Definition


Weather Definition


00:00 1.4 0.8 96   15 24 24.1 100.81     Cloudy
01:00 1.4 0.9 96   14 17 24.1 100.71     Cloudy
02:00 1.7 1.4 98   13 20 6.4 100.65     Rain, Fog
03:00 2.2 2.0 99   14 28 1.6 100.53     Rain, Fog
04:00 2.8 2.7 99   15 30 2.4 100.44     Drizzle, Fog
05:00 3.6 3.4 99   14 35 4.8 100.35     Rain, Fog
06:00 4.1 4.1 100   15 32 2.4 100.29     Rain, Fog
07:00 4.7 4.7 100   14 28 2.4 100.20     Rain, Fog
08:00 5.7 5.7 100   15 33 2.4 100.09     Rain, Fog
09:00 6.6 6.6 100   16 35 2.4 100.02     Rain, Fog
10:00 6.5 6.5 100   16 26 2.4 99.97     Rain, Fog
11:00 7.4 7.4 100   17 26 0.8 99.85     Rain, Fog
12:00 7.9 7.9 100   18 30 3.2 99.69     Rain, Fog
13:00 9.1 9.1 100   18 22 3.2 99.56     Rain, Fog
14:00 10.1 10.1 100   20 39 9.7 99.49     Rain, Fog
15:00 9.0 9.0 100   19 35 2.4 99.45     Fog
16:00 8.6 8.6 100   19 30 0.4 99.41     Fog
17:00 8.6 8.6 100   20 30 0.2 99.38     Fog
18:00 8.4 8.4 100   20 24 0.2 99.41     Fog
19:00 7.6 7.6 100   20 24 0.2 99.42     Fog
20:00 7.0 7.0 100   21 13 0.2 99.42     Fog
21:00 6.5 6.5 100   22 9 0.2 99.42     Fog
22:00 6.3 6.3 100   23 7 4.8 99.40     Fog
23:00 5.7 5.7 100   21 13 4.8 99.40     Fog

Notes on Data Quality.

Legend

  • E = Estimated
  • M = Missing
  • NA = Not Available*
  • [empty] = Indicates an unobserved value
Date modified: